Change the Weather History Date:

Wednesday, October 3, 2012

  Actual Average Record
Temperature  
Mean Temperature 54 °F -  
Max Temperature 64 °F 64 °F 83 °F (1971)
Min Temperature 43 °F 41 °F 23 °F (1974)
Degree Days  
Heating Degree Days 12    
Growing Degree Days 4 (Base 50)    
Moisture  
Dew Point 51 °F    
Average Humidity 83    
Maximum Humidity 94    
Minimum Humidity 67    
Precipitation  
Precipitation 0.00 in - - ()
Sea Level Pressure  
Sea Level Pressure 29.98 in    
Wind  
Wind Speed 4 mph (SSW)    
Max Wind Speed 12 mph    
Max Gust Speed 20 mph    
Visibility 8 miles    
Events Rain    
Averages and records for this station are not official NWS values.
T = Trace of Precipitation, MM = Missing Value Source: NWS Daily Summary

Daily Weather History Graph

Daily Weather History Graph

Search for Another Location

Airport or City:

Trip Planner

Search our weather history database for the weather conditions in past years. The results will help you decide how hot, cold, wet, or windy it might be!

Date:

Astronomy

Oct. 03, 2012 Rise Set
Actual Time 7:42 AM EDT 7:18 PM EDT
Civil Twilight 7:13 AM EDT 7:47 PM EDT
Nautical Twilight 6:40 AM EDT 8:20 PM EDT
Astronomical Twilight 6:06 AM EDT 8:53 PM EDT
Moon 9:02 PM EDT (10/3) 11:12 AM EDT (10/3)
Length of Visible Light 12h 33m
Length of Day
11h 36m
Waning Gibbous, 89% of the Moon is Illuminated
Oct 3
Waning Gibbous
Oct 8
Last Quarter
Oct 15
New
Oct 21
First Quarter
Oct 29
Full

Hourly Weather History & Observations

Time (EDT) Temp. Dew Point Humidity Pressure Visibility Wind Dir Wind Speed Gust Speed Precip Events Conditions
12:15 AM 47.3 °F 40.8 °F 78% 29.96 in 10.0 mi Calm Calm - N/A   Clear
12:34 AM 46.0 °F 39.9 °F 79% 29.96 in 10.0 mi Calm Calm - N/A   Clear
12:55 AM 45.5 °F 39.2 °F 79% 29.96 in 10.0 mi Calm Calm - N/A   Clear
1:15 AM 45.1 °F 39.6 °F 81% 29.95 in 10.0 mi Calm Calm - N/A   Clear
1:34 AM 44.4 °F 39.2 °F 82% 29.95 in 10.0 mi Calm Calm - N/A   Clear
1:55 AM 44.6 °F 39.7 °F 83% 29.95 in 10.0 mi Calm Calm - N/A   Clear
2:15 AM 43.9 °F 39.7 °F 85% 29.94 in 10.0 mi Calm Calm - N/A   Clear
2:34 AM 43.9 °F 40.5 °F 88% 29.94 in 10.0 mi Calm Calm - N/A   Scattered Clouds
2:55 AM 46.0 °F 41.9 °F 85% 29.94 in 10.0 mi Calm Calm - N/A   Mostly Cloudy
3:15 AM 46.4 °F 41.9 °F 84% 29.94 in 10.0 mi Calm Calm - N/A   Overcast
3:35 AM 48.4 °F 42.4 °F 80% 29.93 in 10.0 mi Calm Calm - N/A   Overcast
3:54 AM 48.2 °F 42.1 °F 79% 29.94 in 10.0 mi Calm Calm - N/A   Overcast
4:14 AM 49.1 °F 43.9 °F 82% 29.95 in 10.0 mi Calm Calm - N/A   Overcast
4:35 AM 49.3 °F 43.7 °F 81% 29.96 in 10.0 mi Calm Calm - N/A   Overcast
4:55 AM 50.0 °F 43.7 °F 79% 29.96 in 10.0 mi Calm Calm - N/A   Overcast
5:14 AM 50.0 °F 44.1 °F 80% 29.96 in 10.0 mi WNW 5.8 mph - N/A   Overcast
5:35 AM 50.4 °F 43.9 °F 78% 29.96 in 10.0 mi WNW 5.8 mph - N/A   Overcast
5:55 AM 50.9 °F 44.1 °F 77% 29.96 in 10.0 mi WNW 5.8 mph - N/A   Overcast
6:14 AM 51.1 °F 44.4 °F 78% 29.97 in 10.0 mi WNW 5.8 mph - N/A   Overcast
6:35 AM 51.8 °F 44.6 °F 76% 29.97 in 10.0 mi WNW 4.6 mph - N/A   Overcast
6:55 AM 52.0 °F 45.3 °F 78% 29.97 in 7.0 mi WNW 4.6 mph - N/A   Overcast
7:14 AM 51.8 °F 45.7 °F 80% 29.98 in 10.0 mi North 3.5 mph - N/A Rain Rain
7:35 AM 51.4 °F 46.0 °F 82% 29.97 in 10.0 mi WNW 3.5 mph - N/A   Overcast
7:55 AM 51.8 °F 46.8 °F 83% 29.97 in 10.0 mi NW 4.6 mph - N/A   Overcast
8:14 AM 51.8 °F 48.2 °F 88% 29.97 in 10.0 mi WNW 5.8 mph - N/A   Overcast
8:35 AM 52.0 °F 48.9 °F 89% 29.97 in 10.0 mi WNW 5.8 mph - N/A   Overcast
8:55 AM 52.7 °F 49.6 °F 89% 29.97 in 10.0 mi North 3.5 mph - N/A   Overcast
9:15 AM 53.6 °F 50.2 °F 88% 29.98 in 10.0 mi NW 4.6 mph - N/A   Overcast
9:35 AM 54.5 °F 50.9 °F 88% 29.98 in 10.0 mi WNW 5.8 mph - N/A   Overcast
9:55 AM 57.7 °F 51.4 °F 79% 29.98 in 10.0 mi NNE 6.9 mph - N/A   Overcast
10:14 AM 59.4 °F 51.4 °F 75% 29.98 in 10.0 mi NE 5.8 mph - N/A   Scattered Clouds
10:35 AM 60.1 °F 51.8 °F 74% 29.99 in 10.0 mi SE 5.8 mph - N/A   Mostly Cloudy
11:15 AM 59.2 °F 52.7 °F 79% 29.99 in 10.0 mi SSE 5.8 mph - N/A   Overcast
11:35 AM 60.3 °F 52.9 °F 77% 29.99 in 10.0 mi South 8.1 mph - N/A   Overcast
11:54 AM 60.8 °F 53.4 °F 77% 29.98 in 10.0 mi SE 8.1 mph - N/A   Overcast
12:15 PM 61.3 °F 53.6 °F 76% 29.98 in 10.0 mi ESE 5.8 mph - N/A   Overcast
12:35 PM 61.9 °F 53.6 °F 74% 29.98 in 10.0 mi ESE 5.8 mph - N/A   Overcast
12:54 PM 63.3 °F 54.0 °F 71% 29.98 in 10.0 mi South 10.4 mph - N/A   Overcast
1:15 PM 63.9 °F 53.4 °F 69% 29.98 in 10.0 mi ESE 5.8 mph - N/A   Overcast
1:35 PM 64.8 °F 53.6 °F 67% 29.98 in 10.0 mi South 8.1 mph - N/A   Overcast
1:54 PM 64.4 °F 53.6 °F 68% 29.97 in 10.0 mi SE 5.8 mph - N/A   Overcast
2:15 PM 64.0 °F 53.8 °F 69% 29.97 in 10.0 mi South 6.9 mph - N/A   Overcast
2:35 PM 62.6 °F 54.0 °F 73% 29.97 in 10.0 mi South 11.5 mph 19.6 mph N/A   Overcast
2:55 PM 61.0 °F 56.1 °F 84% 29.97 in 7.0 mi South 11.5 mph - N/A   Overcast
3:14 PM 61.0 °F 55.9 °F 83% 29.97 in 7.0 mi SSW 9.2 mph - N/A   Overcast
3:35 PM 61.0 °F 55.6 °F 82% 29.97 in 10.0 mi SSW 6.9 mph - N/A   Overcast
3:55 PM 61.3 °F 55.2 °F 80% 29.97 in 10.0 mi SW 5.8 mph - N/A   Overcast
4:14 PM 61.5 °F 55.0 °F 79% 29.97 in 7.0 mi South 9.2 mph - N/A   Overcast
4:35 PM 61.3 °F 56.5 °F 84% 29.97 in 7.0 mi SSW 11.5 mph - N/A   Overcast
4:55 PM 61.0 °F 57.4 °F 88% 29.97 in 10.0 mi South 10.4 mph - N/A   Overcast
5:14 PM 60.8 °F 57.2 °F 88% 29.98 in 10.0 mi SSW 11.5 mph - N/A   Overcast
5:35 PM 60.3 °F 57.2 °F 90% 29.98 in 3.0 mi SSW 10.4 mph - N/A Rain Rain
5:55 PM 59.4 °F 57.2 °F 93% 29.98 in 2.0 mi SSW 9.2 mph - N/A   Heavy Drizzle
6:14 PM 59.0 °F 56.8 °F 93% 29.98 in 3.0 mi SSW 11.5 mph - N/A   Drizzle
6:55 PM 58.6 °F 56.5 °F 93% 29.99 in 7.0 mi South 10.4 mph - N/A   Overcast
7:14 PM 58.6 °F 56.7 °F 93% 29.99 in 5.0 mi SSW 10.4 mph - N/A   Overcast
7:35 PM 58.8 °F 56.7 °F 93% 29.98 in 10.0 mi SSE 4.6 mph - N/A   Overcast
7:55 PM 59.0 °F 56.1 °F 90% 29.99 in 10.0 mi ESE 10.4 mph - N/A   Overcast
8:14 PM 59.0 °F 56.7 °F 92% 29.99 in 7.0 mi South 9.2 mph - N/A   Overcast
8:35 PM 58.6 °F 56.5 °F 93% 30.00 in 7.0 mi West 4.6 mph - N/A   Overcast
8:55 PM 58.6 °F 56.5 °F 93% 30.01 in 5.0 mi South 8.1 mph - N/A   Overcast
9:14 PM 58.5 °F 56.5 °F 93% 30.01 in 5.0 mi SSW 10.4 mph - N/A   Overcast
9:35 PM 58.3 °F 56.5 °F 94% 30.01 in 5.0 mi South 6.9 mph - N/A   Overcast
9:54 PM 58.5 °F 56.5 °F 93% 30.01 in 5.0 mi South 8.1 mph - N/A   Overcast
10:15 PM 58.5 °F 56.5 °F 93% 30.01 in 7.0 mi SSW 9.2 mph - N/A   Overcast
10:35 PM 58.3 °F 56.3 °F 93% 30.01 in 5.0 mi South 6.9 mph - N/A Rain Light Rain
10:54 PM 58.3 °F 56.5 °F 94% 30.01 in 3.0 mi SW 5.8 mph - N/A   Drizzle
11:15 PM 58.1 °F 56.5 °F 94% 30.01 in 3.0 mi South 5.8 mph - N/A Rain Rain
11:35 PM 58.1 °F 56.5 °F 94% 30.01 in 5.0 mi SSW 10.4 mph - N/A   Overcast
11:54 PM 58.1 °F 56.5 °F 94% 30.01 in 5.0 mi SSW 10.4 mph - N/A   Overcast